QPF
0.06 0.07 0.08 0.08 0.06 0.08 0.08 0.07 0.07 0.07 0.07 0.06 0.04 0.04 0.03 0.04 0.05 0.05 0.06 0.06 0.05 0.04 0.04 0.05 0.04 0.04 0.06 0.05 0.05 0.05 0.07 0.08 0.06 0.03 0.04 0.05 0.07 0.07 0.05 0.06 0.06 0.06 0.07
0.05 0.05 0.06 0.05 0.06 0.08 0.08 0.08 0.08 0.09 0.09 0.06 0.04 0.03 0.03 0.03 0.04 0.04 0.03 0.03 0.04 0.04 0.04 0.05 0.04 0.05 0.07 0.08 0.08 0.07 0.06 0.07 0.07 0.05 0.05 0.06 0.07 0.07 0.08 0.09 0.07 0.04 0.06
0.04 0.04 0.05 0.05 0.06 0.06 0.07 0.07 0.08 0.08 0.06 0.04 0.03 0.03 0.03 0.03 0.04 0.03 0.03 0.03 0.04 0.04 0.05 0.05 0.05 0.07 0.08 0.09 0.08 0.07 0.05 0.05 0.06 0.06 0.06 0.06 0.07 0.08 0.11 0.10 0.09 0.07 0.05
0.04 0.04 0.05 0.05 0.05 0.05 0.07 0.07 0.07 0.05 0.04 0.03 0.03 0.03 0.03 0.03 0.02 0.02 0.02 0.03 0.04 0.05 0.05 0.06 0.07 0.07 0.07 0.07 0.06 0.06 0.06 0.06 0.07 0.08 0.07 0.08 0.09 0.10 0.13 0.11 0.10 0.10 0.06
0.03 0.02 0.03 0.04 0.04 0.05 0.06 0.07 0.06 0.06 0.05 0.04 0.03 0.03 0.04 0.02 0.02 0.02 0.02 0.03 0.05 0.06 0.06 0.06 0.07 0.06 0.05 0.05 0.04 0.04 0.05 0.06 0.06 0.07 0.08 0.09 0.09 0.11 0.10 0.09 0.09 0.08 0.07
0.02 0.01 0.02 0.03 0.05 0.06 0.06 0.05 0.04 0.07 0.08 0.06 0.05 0.05 0.05 0.03 0.02 0.03 0.03 0.03 0.04 0.05 0.06 0.08 0.07 0.06 0.04 0.03 0.02 0.03 0.04 0.05 0.05 0.06 0.05 0.06 0.07 0.08 0.08 0.07 0.08 0.07 0.06
0.01 0.01 0.02 0.04 0.05 0.07 0.08 0.07 0.04 0.04 0.06 0.06 0.06 0.06 0.05 0.04 0.02 0.02 0.02 0.03 0.05 0.06 0.08 0.08 0.06 0.05 0.04 0.03 0.02 0.02 0.03 0.03 0.03 0.04 0.04 0.04 0.04 0.06 0.06 0.06 0.06 0.06 0.05
0.00 0.01 0.01 0.03 0.05 0.08 0.10 0.10 0.08 0.05 0.05 0.05 0.06 0.06 0.05 0.03 0.02 0.03 0.03 0.03 0.04 0.06 0.06 0.05 0.05 0.05 0.04 0.03 0.02 0.02 0.02 0.02 0.02 0.02 0.03 0.03 0.04 0.05 0.06 0.07 0.07 0.06 0.05
0.01 0.01 0.01 0.02 0.03 0.04 0.07 0.09 0.08 0.06 0.05 0.05 0.06 0.05 0.04 0.03 0.03 0.03 0.04 0.04 0.05 0.04 0.03 0.03 0.03 0.03 0.03 0.03 0.03 0.03 0.03 0.03 0.02 0.01 0.01 0.02 0.03 0.03 0.04 0.06 0.07 0.07 0.06
0.02 0.01 0.01 0.02 0.02 0.03 0.04 0.07 0.07 0.06 0.05 0.05 0.06 0.06 0.05 0.05 0.04 0.04 0.04 0.04 0.04 0.04 0.04 0.04 0.03 0.02 0.02 0.03 0.04 0.04 0.04 0.04 0.03 0.03 0.03 0.03 0.04 0.04 0.04 0.06 0.06 0.07 0.07
0.02 0.02 0.02 0.02 0.02 0.03 0.05 0.06 0.06 0.04 0.04 0.04 0.05 0.05 0.06 0.05 0.03 0.03 0.02 0.02 0.02 0.03 0.03 0.03 0.04 0.03 0.03 0.03 0.04 0.04 0.03 0.03 0.03 0.04 0.05 0.05 0.05 0.06 0.06 0.07 0.07 0.07 0.09
0.03 0.04 0.04 0.03 0.03 0.04 0.04 0.03 0.04 0.03 0.03 0.03 0.05 0.05 0.06 0.04 0.02 0.01 0.01 0.01 0.01 0.01 0.02 0.03 0.03 0.03 0.02 0.02 0.02 0.02 0.03 0.03 0.03 0.04 0.04 0.03 0.04 0.04 0.05 0.06 0.08 0.09 0.10
0.05 0.05 0.04 0.03 0.03 0.04 0.03 0.03 0.03 0.03 0.03 0.02 0.02 0.04 0.04 0.03 0.02 0.01 0.01 0.00 0.01 0.01 0.01 0.02 0.02 0.02 0.02 0.02 0.02 0.02 0.02 0.02 0.03 0.03 0.04 0.04 0.04 0.04 0.04 0.05 0.06 0.07 0.07
0.04 0.04 0.04 0.05 0.05 0.04 0.03 0.03 0.04 0.03 0.03 0.03 0.02 0.01 0.01 0.01 0.01 0.01 0.01 0.01 0.01 0.01 0.01 0.02 0.02 0.02 0.02 0.02 0.02 0.03 0.03 0.04 0.04 0.03 0.04 0.04 0.04 0.03 0.03 0.04 0.04 0.04 0.04
0.05 0.05 0.05 0.04 0.03 0.02 0.02 0.02 0.03 0.02 0.02 0.02 0.01 0.01 0.01 0.01 0.00 0.00 0.00 0.01 0.01 0.01 0.01 0.02 0.02 0.03 0.04 0.05 0.04 0.03 0.03 0.03 0.04 0.04 0.03 0.03 0.03 0.03 0.03 0.03 0.03 0.03 0.03
0.06 0.04 0.03 0.02 0.02 0.02 0.01 0.01 0.01 0.01 0.01 0.01 0.01 0.01 0.01 0.01 0.00 0.00 0.00 0.01 0.01 0.02 0.02 0.03 0.04 0.04 0.04 0.04 0.04 0.04 0.04 0.04 0.03 0.02 0.02 0.02 0.03 0.03 0.02 0.02 0.03 0.04 0.04
0.04 0.03 0.02 0.00 0.01 0.02 0.01 0.02 0.02 0.02 0.01 0.02 0.02 0.01 0.01 0.01 0.01 0.01 0.01 0.01 0.02 0.02 0.03 0.03 0.04 0.06 0.06 0.05 0.05 0.04 0.03 0.02 0.02 0.02 0.02 0.03 0.04 0.03 0.03 0.03 0.03 0.04 0.04
0.04 0.02 0.01 0.01 0.01 0.01 0.02 0.03 0.04 0.02 0.02 0.03 0.03 0.02 0.02 0.02 0.02 0.02 0.02 0.02 0.03 0.03 0.03 0.03 0.04 0.05 0.05 0.04 0.03 0.03 0.02 0.03 0.03 0.03 0.04 0.04 0.04 0.04 0.03 0.03 0.03 0.03 0.03
0.03 0.01 0.00 0.00 0.01 0.01 0.02 0.04 0.05 0.04 0.04 0.04 0.04 0.04 0.04 0.03 0.03 0.03 0.02 0.03 0.03 0.03 0.03 0.04 0.03 0.03 0.03 0.04 0.03 0.03 0.02 0.03 0.03 0.03 0.04 0.03 0.03 0.02 0.02 0.03 0.03 0.03 0.03
0.02 0.01 0.01 0.00 0.00 0.01 0.02 0.05 0.06 0.05 0.04 0.04 0.04 0.05 0.04 0.03 0.03 0.03 0.03 0.03 0.02 0.02 0.02 0.02 0.02 0.02 0.03 0.03 0.03 0.03 0.02 0.02 0.02 0.02 0.02 0.02 0.02 0.02 0.02 0.02 0.02 0.02 0.03
0.01 0.01 0.01 0.00 0.00 0.01 0.02 0.05 0.06 0.04 0.03 0.03 0.03 0.03 0.03 0.02 0.02 0.02 0.02 0.02 0.01 0.01 0.01 0.02 0.03 0.03 0.02 0.02 0.02 0.03 0.02 0.02 0.01 0.01 0.02 0.02 0.02 0.02 0.01 0.02 0.02 0.02 0.03
0.01 0.01 0.00 0.00 0.00 0.01 0.02 0.03 0.04 0.03 0.02 0.02 0.02 0.01 0.01 0.01 0.01 0.01 0.01 0.01 0.01 0.01 0.01 0.02 0.02 0.02 0.02 0.02 0.02 0.02 0.02 0.02 0.01 0.01 0.01 0.01 0.01 0.01 0.01 0.01 0.02 0.02 0.03
0.01 0.02 0.00 0.00 0.01 0.01 0.01 0.01 0.02 0.02 0.02 0.01 0.01 0.01 0.00 0.01 0.01 0.01 0.01 0.01 0.01 0.01 0.01 0.01 0.01 0.02 0.02 0.02 0.02 0.02 0.02 0.01 0.01 0.01 0.01 0.01 0.01 0.01 0.01 0.02 0.02 0.02 0.02
0.01 0.02 0.01 0.01 0.01 0.01 0.01 0.02 0.01 0.01 0.01 0.01 0.00 0.00 0.00 0.01 0.01 0.00 0.00 0.00 0.00 0.01 0.01 0.01 0.01 0.01 0.01 0.01 0.01 0.01 0.00 0.00 0.00 0.01 0.01 0.01 0.01 0.01 0.01 0.02 0.02 0.02 0.02
0.00 0.01 0.01 0.01 0.01 0.02 0.02 0.02 0.01 0.01 0.00 0.00 0.00 0.00 0.00 0.00 0.01 0.00 0.00 0.00 0.00 0.00 0.00 0.00 0.01 0.00 0.00 0.00 0.00 0.00 0.00 0.00 0.00 0.01 0.01 0.01 0.01 0.01 0.01 0.01 0.01 0.01 0.01
0.00 0.00 0.00 0.01 0.03 0.03 0.02 0.01 0.01 0.00 0.00 0.00 0.00 0.00 0.00 0.01 0.01 0.01 0.00 0.00 0.00 0.00 0.00 0.00 0.00 0.00 0.00 0.00 0.00 0.00 0.01 0.01 0.01 0.01 0.01 0.02 0.01 0.01 0.01 0.01 0.00 0.01 0.01
MSLP
1006.95 1007.37 1007.71 1007.94 1008.05 1008.07 1008.04 1008.00 1008.01 1008.08 1008.25 1008.47 1008.73 1008.99 1009.18 1009.29 1009.30 1009.21 1009.05 1008.84 1008.63 1008.46 1008.35 1008.29 1008.27 1008.27 1008.27 1008.21 1008.08 1007.86 1007.57 1007.19 1006.78 1006.35 1005.93 1005.55 1005.25 1005.02 1004.87 1004.82 1004.83 1004.92 1005.07
1007.55 1007.91 1008.20 1008.40 1008.51 1008.53 1008.50 1008.47 1008.49 1008.56 1008.71 1008.93 1009.18 1009.41 1009.58 1009.65 1009.61 1009.46 1009.21 1008.91 1008.60 1008.32 1008.10 1007.95 1007.88 1007.85 1007.85 1007.83 1007.76 1007.62 1007.40 1007.10 1006.73 1006.31 1005.89 1005.49 1005.13 1004.83 1004.61 1004.47 1004.41 1004.41 1004.47
1008.07 1008.37 1008.63 1008.81 1008.90 1008.93 1008.93 1008.92 1008.95 1009.05 1009.21 1009.43 1009.67 1009.90 1010.05 1010.11 1010.03 1009.83 1009.52 1009.14 1008.73 1008.35 1008.04 1007.81 1007.67 1007.60 1007.59 1007.59 1007.55 1007.47 1007.30 1007.05 1006.73 1006.34 1005.92 1005.51 1005.12 1004.78 1004.51 1004.31 1004.18 1004.11 1004.11
1008.52 1008.77 1008.98 1009.13 1009.23 1009.27 1009.28 1009.30 1009.36 1009.48 1009.67 1009.90 1010.16 1010.39 1010.55 1010.59 1010.51 1010.28 1009.93 1009.49 1009.02 1008.57 1008.17 1007.87 1007.67 1007.55 1007.51 1007.50 1007.47 1007.40 1007.26 1007.03 1006.73 1006.35 1005.94 1005.51 1005.11 1004.75 1004.46 1004.23 1004.07 1003.96 1003.90
1008.90 1009.09 1009.26 1009.39 1009.47 1009.52 1009.55 1009.59 1009.67 1009.82 1010.03 1010.29 1010.57 1010.81 1010.99 1011.05 1010.97 1010.74 1010.38 1009.93 1009.43 1008.93 1008.49 1008.13 1007.87 1007.71 1007.62 1007.57 1007.51 1007.41 1007.25 1007.00 1006.67 1006.28 1005.85 1005.42 1005.01 1004.65 1004.35 1004.12 1003.95 1003.83 1003.75
1009.24 1009.38 1009.51 1009.61 1009.67 1009.71 1009.74 1009.79 1009.89 1010.05 1010.28 1010.55 1010.85 1011.11 1011.31 1011.40 1011.35 1011.15 1010.81 1010.38 1009.89 1009.39 1008.93 1008.53 1008.23 1008.02 1007.87 1007.75 1007.63 1007.46 1007.23 1006.93 1006.54 1006.10 1005.63 1005.17 1004.75 1004.39 1004.10 1003.88 1003.73 1003.62 1003.54
1009.55 1009.65 1009.74 1009.81 1009.85 1009.88 1009.91 1009.95 1010.05 1010.21 1010.44 1010.72 1011.02 1011.30 1011.52 1011.63 1011.62 1011.46 1011.17 1010.78 1010.32 1009.84 1009.39 1008.99 1008.66 1008.40 1008.18 1007.99 1007.78 1007.53 1007.20 1006.80 1006.33 1005.81 1005.29 1004.78 1004.33 1003.97 1003.69 1003.49 1003.37 1003.28 1003.22
1009.88 1009.95 1010.01 1010.05 1010.07 1010.08 1010.09 1010.13 1010.22 1010.37 1010.58 1010.85 1011.14 1011.42 1011.65 1011.78 1011.80 1011.69 1011.45 1011.10 1010.69 1010.25 1009.81 1009.42 1009.07 1008.77 1008.50 1008.23 1007.93 1007.58 1007.15 1006.65 1006.09 1005.49 1004.89 1004.33 1003.85 1003.46 1003.18 1002.99 1002.89 1002.83 1002.79
1010.23 1010.28 1010.32 1010.35 1010.37 1010.36 1010.37 1010.39 1010.46 1010.59 1010.79 1011.03 1011.30 1011.57 1011.79 1011.93 1011.95 1011.87 1011.66 1011.35 1010.97 1010.57 1010.15 1009.76 1009.40 1009.07 1008.75 1008.42 1008.05 1007.62 1007.11 1006.53 1005.89 1005.22 1004.55 1003.95 1003.42 1003.00 1002.70 1002.51 1002.41 1002.36 1002.33
1010.58 1010.63 1010.69 1010.72 1010.74 1010.74 1010.75 1010.78 1010.84 1010.96 1011.14 1011.36 1011.60 1011.84 1012.03 1012.15 1012.17 1012.07 1011.87 1011.57 1011.20 1010.80 1010.39 1009.99 1009.62 1009.27 1008.92 1008.56 1008.15 1007.67 1007.13 1006.50 1005.82 1005.11 1004.41 1003.76 1003.19 1002.74 1002.41 1002.19 1002.06 1001.99 1001.95
1010.92 1010.99 1011.07 1011.13 1011.17 1011.20 1011.24 1011.29 1011.37 1011.49 1011.66 1011.87 1012.08 1012.29 1012.44 1012.51 1012.49 1012.37 1012.13 1011.80 1011.41 1010.98 1010.55 1010.13 1009.74 1009.37 1009.02 1008.64 1008.23 1007.76 1007.22 1006.61 1005.94 1005.23 1004.53 1003.87 1003.28 1002.79 1002.42 1002.15 1001.97 1001.84 1001.75
1011.21 1011.31 1011.42 1011.52 1011.62 1011.70 1011.79 1011.88 1012.00 1012.15 1012.33 1012.53 1012.73 1012.90 1013.01 1013.03 1012.95 1012.76 1012.47 1012.08 1011.63 1011.15 1010.67 1010.21 1009.79 1009.41 1009.05 1008.70 1008.32 1007.90 1007.42 1006.87 1006.26 1005.61 1004.95 1004.31 1003.71 1003.19 1002.76 1002.43 1002.17 1001.97 1001.79
1011.42 1011.56 1011.71 1011.87 1012.01 1012.16 1012.31 1012.47 1012.65 1012.85 1013.06 1013.27 1013.46 1013.60 1013.67 1013.64 1013.49 1013.23 1012.86 1012.39 1011.87 1011.31 1010.77 1010.27 1009.82 1009.42 1009.07 1008.75 1008.44 1008.10 1007.71 1007.27 1006.76 1006.20 1005.61 1005.01 1004.43 1003.89 1003.40 1002.99 1002.63 1002.33 1002.05
1011.55 1011.72 1011.91 1012.10 1012.31 1012.52 1012.74 1012.97 1013.21 1013.46 1013.71 1013.95 1014.15 1014.28 1014.31 1014.24 1014.04 1013.71 1013.26 1012.72 1012.12 1011.50 1010.89 1010.34 1009.85 1009.45 1009.11 1008.84 1008.59 1008.34 1008.07 1007.74 1007.36 1006.91 1006.40 1005.86 1005.30 1004.74 1004.21 1003.71 1003.25 1002.83 1002.43
1011.60 1011.78 1011.98 1012.21 1012.45 1012.72 1012.99 1013.28 1013.58 1013.89 1014.18 1014.45 1014.66 1014.79 1014.81 1014.71 1014.48 1014.11 1013.61 1013.02 1012.37 1011.70 1011.05 1010.46 1009.95 1009.54 1009.21 1008.98 1008.79 1008.63 1008.45 1008.23 1007.96 1007.61 1007.19 1006.70 1006.16 1005.59 1005.00 1004.41 1003.85 1003.31 1002.80
1011.59 1011.75 1011.96 1012.19 1012.46 1012.75 1013.05 1013.38 1013.72 1014.06 1014.39 1014.67 1014.90 1015.05 1015.07 1014.97 1014.73 1014.36 1013.86 1013.26 1012.60 1011.92 1011.26 1010.66 1010.14 1009.73 1009.42 1009.20 1009.05 1008.94 1008.83 1008.69 1008.49 1008.21 1007.84 1007.38 1006.85 1006.25 1005.61 1004.95 1004.28 1003.63 1003.01
1011.55 1011.69 1011.87 1012.09 1012.35 1012.64 1012.95 1013.29 1013.65 1014.00 1014.33 1014.64 1014.87 1015.03 1015.08 1015.00 1014.79 1014.45 1013.99 1013.44 1012.82 1012.17 1011.55 1010.97 1010.47 1010.07 1009.76 1009.55 1009.41 1009.30 1009.20 1009.08 1008.90 1008.63 1008.28 1007.82 1007.27 1006.64 1005.94 1005.21 1004.45 1003.71 1002.98
1011.49 1011.60 1011.75 1011.95 1012.18 1012.46 1012.76 1013.09 1013.43 1013.77 1014.10 1014.40 1014.64 1014.81 1014.88 1014.84 1014.69 1014.42 1014.04 1013.57 1013.05 1012.49 1011.93 1011.41 1010.95 1010.57 1010.26 1010.03 1009.86 1009.72 1009.58 1009.41 1009.19 1008.89 1008.50 1008.01 1007.42 1006.74 1005.99 1005.19 1004.36 1003.53 1002.73
1011.44 1011.52 1011.65 1011.82 1012.03 1012.28 1012.57 1012.87 1013.18 1013.50 1013.80 1014.08 1014.32 1014.49 1014.59 1014.60 1014.52 1014.34 1014.07 1013.72 1013.32 1012.88 1012.43 1012.00 1011.60 1011.24 1010.93 1010.67 1010.43 1010.22 1009.99 1009.74 1009.43 1009.05 1008.58 1008.02 1007.37 1006.63 1005.83 1004.98 1004.10 1003.21 1002.35
1011.39 1011.46 1011.57 1011.73 1011.93 1012.17 1012.43 1012.71 1013.00 1013.29 1013.57 1013.81 1014.03 1014.21 1014.33 1014.38 1014.37 1014.29 1014.15 1013.93 1013.67 1013.37 1013.05 1012.71 1012.37 1012.05 1011.73 1011.42 1011.12 1010.80 1010.47 1010.09 1009.66 1009.17 1008.60 1007.95 1007.23 1006.45 1005.61 1004.72 1003.81 1002.89 1001.99
1011.34 1011.41 1011.53 1011.71 1011.91 1012.15 1012.41 1012.69 1012.96 1013.22 1013.47 1013.69 1013.89 1014.06 1014.19 1014.29 1014.34 1014.35 1014.31 1014.23 1014.11 1013.94 1013.74 1013.50 1013.24 1012.95 1012.62 1012.27 1011.89 1011.47 1011.01 1010.50 1009.95 1009.33 1008.67 1007.94 1007.16 1006.33 1005.47 1004.57 1003.66 1002.74 1001.84
1011.28 1011.38 1011.53 1011.72 1011.96 1012.23 1012.51 1012.79 1013.06 1013.32 1013.55 1013.76 1013.94 1014.10 1014.24 1014.35 1014.45 1014.53 1014.58 1014.61 1014.60 1014.55 1014.46 1014.31 1014.11 1013.85 1013.53 1013.14 1012.69 1012.18 1011.61 1010.99 1010.32 1009.61 1008.85 1008.07 1007.25 1006.41 1005.55 1004.67 1003.79 1002.90 1002.03
1011.21 1011.35 1011.53 1011.77 1012.05 1012.36 1012.68 1012.99 1013.28 1013.54 1013.77 1013.98 1014.15 1014.30 1014.44 1014.57 1014.69 1014.81 1014.93 1015.03 1015.10 1015.14 1015.13 1015.06 1014.91 1014.69 1014.37 1013.95 1013.46 1012.88 1012.24 1011.53 1010.79 1010.01 1009.21 1008.40 1007.57 1006.75 1005.92 1005.09 1004.27 1003.44 1002.62
1011.16 1011.32 1011.54 1011.82 1012.15 1012.50 1012.86 1013.21 1013.53 1013.82 1014.07 1014.28 1014.45 1014.60 1014.74 1014.87 1015.00 1015.14 1015.29 1015.43 1015.56 1015.66 1015.71 1015.69 1015.59 1015.39 1015.08 1014.67 1014.15 1013.54 1012.86 1012.11 1011.33 1010.53 1009.72 1008.91 1008.12 1007.34 1006.57 1005.82 1005.07 1004.33 1003.59
1011.13 1011.31 1011.55 1011.86 1012.22 1012.61 1013.01 1013.39 1013.75 1014.07 1014.35 1014.57 1014.76 1014.91 1015.05 1015.18 1015.31 1015.46 1015.62 1015.79 1015.94 1016.07 1016.15 1016.17 1016.10 1015.93 1015.65 1015.25 1014.74 1014.13 1013.45 1012.70 1011.93 1011.13 1010.35 1009.58 1008.83 1008.12 1007.44 1006.77 1006.13 1005.48 1004.84
1011.16 1011.33 1011.58 1011.90 1012.27 1012.67 1013.09 1013.51 1013.89 1014.24 1014.54 1014.79 1014.99 1015.15 1015.30 1015.44 1015.58 1015.73 1015.89 1016.07 1016.23 1016.38 1016.49 1016.53 1016.49 1016.35 1016.10 1015.73 1015.25 1014.67 1014.01 1013.29 1012.55 1011.79 1011.05 1010.34 1009.67 1009.03 1008.43 1007.86 1007.31 1006.77 1006.23
Thickness
5686 5684 5681 5679 5677 5675 5673 5670 5668 5666 5663 5660 5658 5655 5652 5649 5646 5643 5640 5637 5633 5630 5628 5625 5622 5619 5616 5615 5613 5611 5609 5605 5602 5605 5607 5608 5607 5607 5608 5609 5610 5610 5610
5684 5680 5677 5675 5673 5670 5668 5666 5665 5662 5659 5656 5653 5650 5648 5645 5642 5638 5635 5632 5628 5624 5622 5618 5615 5613 5608 5606 5604 5602 5601 5599 5596 5594 5596 5597 5598 5599 5599 5600 5601 5603 5604
5681 5678 5674 5671 5668 5666 5664 5662 5660 5658 5655 5653 5650 5647 5644 5641 5637 5633 5630 5627 5623 5620 5616 5612 5609 5605 5601 5599 5596 5594 5593 5592 5589 5587 5587 5588 5589 5590 5590 5591 5592 5593 5595
5677 5673 5670 5667 5665 5663 5661 5659 5657 5655 5652 5649 5646 5643 5640 5635 5631 5627 5624 5621 5618 5614 5611 5607 5603 5598 5594 5592 5590 5586 5584 5582 5580 5579 5579 5579 5579 5580 5579 5579 5580 5581 5583
5672 5670 5667 5665 5663 5661 5658 5656 5654 5652 5649 5645 5642 5639 5635 5630 5625 5620 5617 5616 5611 5608 5604 5601 5596 5592 5587 5584 5581 5577 5575 5572 5571 5569 5568 5568 5568 5567 5566 5567 5568 5570 5572
5669 5667 5665 5663 5660 5658 5655 5653 5650 5647 5644 5641 5637 5633 5629 5624 5618 5614 5611 5608 5605 5601 5598 5594 5590 5586 5581 5577 5573 5570 5567 5563 5562 5560 5559 5557 5557 5557 5558 5558 5557 5559 5561
5667 5665 5663 5660 5657 5654 5652 5649 5646 5643 5640 5636 5633 5629 5624 5618 5614 5610 5606 5603 5600 5596 5591 5587 5583 5579 5573 5569 5566 5564 5560 5558 5555 5552 5550 5549 5549 5550 5549 5549 5549 5549 5551
5664 5662 5660 5657 5654 5651 5648 5645 5642 5639 5636 5632 5629 5625 5620 5614 5609 5605 5601 5598 5594 5590 5586 5581 5575 5570 5566 5561 5559 5556 5554 5552 5550 5547 5545 5544 5544 5544 5543 5542 5542 5543 5546
5661 5659 5657 5654 5651 5648 5644 5641 5638 5635 5632 5629 5626 5621 5616 5609 5604 5599 5595 5592 5588 5584 5580 5575 5569 5563 5558 5554 5552 5549 5547 5545 5545 5543 5540 5539 5539 5538 5536 5534 5534 5534 5536
5658 5657 5654 5652 5648 5645 5642 5639 5636 5633 5630 5627 5623 5618 5613 5605 5599 5594 5588 5585 5581 5577 5573 5567 5562 5557 5552 5548 5544 5542 5540 5539 5538 5537 5536 5535 5535 5534 5531 5528 5527 5527 5528
5657 5655 5652 5649 5646 5643 5640 5637 5635 5632 5628 5624 5620 5616 5610 5602 5595 5589 5583 5578 5574 5570 5566 5563 5558 5553 5548 5544 5540 5537 5535 5533 5533 5532 5531 5530 5529 5527 5525 5524 5522 5521 5521
5655 5653 5650 5647 5645 5643 5638 5636 5633 5629 5626 5621 5617 5611 5606 5599 5592 5585 5580 5574 5569 5565 5561 5558 5554 5549 5545 5541 5538 5536 5532 5529 5529 5527 5525 5523 5522 5520 5519 5518 5517 5518 5518
5653 5650 5648 5646 5643 5640 5637 5633 5630 5627 5622 5618 5614 5608 5602 5597 5590 5583 5577 5572 5567 5561 5558 5554 5550 5546 5543 5540 5537 5533 5529 5526 5523 5521 5518 5517 5516 5515 5514 5513 5513 5513 5513
5651 5649 5646 5644 5641 5638 5635 5632 5628 5624 5619 5615 5610 5605 5600 5594 5587 5581 5575 5570 5565 5560 5555 5551 5548 5545 5541 5537 5534 5531 5527 5523 5519 5516 5513 5512 5510 5509 5508 5507 5507 5507 5507
5650 5648 5645 5643 5640 5636 5632 5628 5624 5620 5616 5611 5607 5602 5596 5590 5582 5575 5570 5567 5561 5556 5550 5549 5548 5544 5540 5537 5534 5530 5525 5521 5517 5513 5510 5507 5506 5505 5504 5503 5502 5501 5500
5649 5647 5645 5643 5640 5637 5632 5626 5621 5618 5613 5608 5604 5598 5593 5587 5581 5576 5571 5565 5559 5554 5549 5548 5544 5541 5537 5534 5531 5527 5523 5518 5513 5510 5507 5505 5503 5501 5500 5499 5498 5497 5496
5648 5646 5644 5643 5640 5637 5633 5628 5623 5616 5611 5606 5602 5597 5592 5587 5581 5576 5571 5565 5560 5554 5549 5546 5542 5538 5534 5531 5527 5523 5518 5514 5511 5507 5504 5502 5500 5499 5497 5496 5495 5494 5493
5648 5645 5642 5641 5639 5636 5633 5630 5626 5621 5616 5610 5603 5597 5592 5587 5582 5576 5570 5565 5562 5556 5550 5545 5540 5535 5530 5527 5523 5519 5515 5512 5508 5505 5503 5500 5498 5496 5495 5494 5493 5491 5490
5646 5644 5642 5641 5639 5636 5633 5630 5627 5623 5619 5613 5608 5601 5594 5589 5583 5577 5570 5566 5562 5555 5549 5543 5538 5533 5527 5523 5520 5516 5512 5509 5506 5503 5500 5498 5496 5494 5493 5493 5491 5489 5488
5644 5642 5640 5640 5638 5635 5633 5630 5627 5623 5619 5614 5609 5603 5598 5592 5587 5580 5573 5566 5560 5554 5548 5542 5536 5531 5526 5521 5518 5514 5510 5506 5502 5499 5497 5495 5494 5493 5492 5491 5490 5488 5487
5646 5643 5639 5639 5636 5634 5632 5629 5627 5623 5619 5615 5609 5604 5597 5594 5588 5581 5574 5567 5560 5553 5547 5541 5536 5530 5525 5520 5516 5512 5507 5503 5499 5496 5494 5493 5492 5491 5490 5490 5489 5488 5487
5645 5643 5641 5639 5636 5633 5631 5629 5627 5623 5619 5614 5610 5604 5597 5593 5587 5580 5574 5567 5561 5554 5548 5541 5536 5530 5523 5518 5514 5509 5504 5500 5496 5494 5492 5491 5491 5491 5490 5488 5487 5486 5485
5644 5643 5641 5639 5637 5632 5631 5629 5626 5622 5618 5614 5610 5604 5598 5592 5586 5580 5574 5567 5560 5554 5548 5541 5535 5529 5523 5517 5512 5507 5501 5496 5493 5492 5490 5490 5489 5489 5488 5487 5486 5485 5484
5645 5643 5641 5639 5637 5634 5631 5628 5625 5621 5617 5613 5609 5604 5598 5591 5586 5580 5574 5567 5560 5553 5547 5540 5533 5527 5522 5516 5510 5504 5498 5494 5491 5490 5488 5487 5487 5488 5487 5486 5485 5484 5483
5644 5643 5641 5639 5636 5634 5630 5627 5624 5621 5617 5613 5608 5603 5597 5591 5585 5579 5573 5567 5560 5553 5546 5540 5533 5526 5520 5514 5508 5502 5497 5494 5492 5489 5488 5488 5487 5486 5486 5485 5485 5483 5483
5644 5643 5641 5639 5635 5632 5629 5626 5623 5620 5616 5612 5607 5602 5597 5591 5585 5579 5573 5566 5559 5553 5546 5539 5532 5525 5519 5513 5507 5502 5499 5496 5494 5491 5489 5487 5487 5486 5485 5484 5483 5482 5481